"read_dt","SO2 (ppb)","flags","PMT voltage (V)","lamp voltage (V)","lamp intensity (Hz)","internal temp (C)","react chamber temp (C)","sample flow (l/min)","pres (mmHg)","SO2 bkg (ppb)","SO2 coefficient"
2014-05-10 00:00:00,2774E-2,5C000410,-0724,1056,9951,027.5,045.3,0.000,744.3,01.18,0.508
2014-05-10 00:01:00,2790E-2,5C000400,-0724,1057,10137,027.6,045.3,0.000,744.3,01.18,0.508
2014-05-10 00:02:00,2809E-2,5C000410,-0724,1057,9816,027.6,045.3,0.000,744.4,01.18,0.508
2014-05-10 00:03:00,2807E-2,5C000400,-0724,1056,10040,027.6,045.3,0.000,744.3,01.18,0.508
2014-05-10 00:04:00,2813E-2,5C000410,-0724,1055,9826,027.6,045.3,0.000,744.3,01.18,0.508
2014-05-10 00:05:00,2834E-2,5C000410,-0724,1055,9819,027.6,045.3,0.000,744.3,01.18,0.508
2014-05-10 00:06:00,2774E-2,5C000400,-0724,1054,10052,027.6,045.3,0.000,744.4,01.18,0.508
2014-05-10 00:07:00,2786E-2,5C000400,-0724,1055,10095,027.6,045.3,0.000,744.3,01.18,0.508
2014-05-10 00:08:00,2823E-2,5C000400,-0724,1056,10016,027.6,045.3,0.000,744.3,01.18,0.508
2014-05-10 00:09:00,2833E-2,5C000410,-0724,1056,9993,027.6,045.3,0.000,744.3,01.18,0.508
2014-05-10 00:10:00,2855E-2,5C000410,-0724,1056,9981,027.7,045.3,0.000,744.3,01.18,0.508
2014-05-10 00:11:00,2792E-2,5C000410,-0724,1056,9968,027.7,045.3,0.000,744.3,01.18,0.508
2014-05-10 00:12:00,2812E-2,5C000410,-0724,1055,9900,027.7,045.3,0.000,744.3,01.18,0.508
2014-05-10 00:13:00,2819E-2,5C000410,-0724,1056,10024,027.7,045.3,0.000,744.4,01.18,0.508
2014-05-10 00:14:00,2823E-2,5C000410,-0724,1055,9982,027.7,045.3,0.000,744.4,01.18,0.508
2014-05-10 00:15:00,2817E-2,5C000410,-0724,1056,10022,027.7,045.3,0.000,744.3,01.18,0.508
2014-05-10 00:16:00,2805E-2,5C000400,-0724,1055,10001,027.7,045.3,0.000,744.4,01.18,0.508
2014-05-10 00:17:00,2826E-2,5C000410,-0724,1056,9917,027.7,045.3,0.000,744.5,01.17,0.508
2014-05-10 00:18:00,2858E-2,5C000410,-0724,1055,10014,027.7,045.3,0.000,744.4,01.18,0.508
2014-05-10 00:19:00,2797E-2,5C000410,-0724,1055,10066,027.7,045.3,0.000,744.3,01.18,0.508
2014-05-10 00:20:00,2808E-2,5C000410,-0724,1056,10034,027.7,045.3,0.000,744.3,01.18,0.508
2014-05-10 00:21:00,2821E-2,5C000410,-0724,1056,10056,027.7,045.3,0.000,744.4,01.18,0.508
2014-05-10 00:22:00,2796E-2,5C000410,-0724,1056,9919,027.8,045.3,0.000,744.3,01.18,0.508
2014-05-10 00:23:00,2820E-2,5C000400,-0724,1056,10090,027.8,045.3,0.000,744.3,01.18,0.508
2014-05-10 00:24:00,2850E-2,5C000410,-0724,1055,9962,027.8,045.3,0.000,744.4,01.18,0.508
2014-05-10 00:25:00,2834E-2,5C000400,-0724,1055,10016,027.8,045.3,0.000,744.4,01.18,0.508
2014-05-10 00:26:00,2805E-2,5C000400,-0724,1054,10033,027.8,045.3,0.000,744.4,01.18,0.508
2014-05-10 00:27:00,2827E-2,5C000410,-0724,1056,9853,027.8,045.3,0.000,744.3,01.18,0.508
2014-05-10 00:28:00,2814E-2,5C000410,-0724,1055,10105,027.8,045.3,0.000,744.3,01.18,0.508
2014-05-10 00:29:00,2816E-2,5C000410,-0724,1056,10059,027.8,045.3,0.000,744.3,01.18,0.508
2014-05-10 00:30:00,2821E-2,5C000400,-0724,1054,10059,027.8,045.3,0.000,744.4,01.18,0.508
2014-05-10 00:31:00,2819E-2,5C000400,-0724,1054,9882,027.8,045.3,0.000,744.4,01.18,0.508
2014-05-10 00:32:00,2801E-2,5C000400,-0724,1054,9881,027.9,045.3,0.000,744.3,01.18,0.508
2014-05-10 00:33:00,2782E-2,5C000410,-0724,1056,9969,027.9,045.3,0.000,744.3,01.18,0.508
2014-05-10 00:34:00,2792E-2,5C000400,-0724,1056,10144,027.9,045.3,0.000,744.4,01.18,0.508
2014-05-10 00:35:00,2804E-2,5C000410,-0724,1055,9777,027.9,045.3,0.000,744.4,01.18,0.508
2014-05-10 00:36:00,2803E-2,5C000400,-0724,1055,9928,027.9,045.3,0.000,744.3,01.18,0.508
2014-05-10 00:37:00,2848E-2,5C000410,-0724,1056,10079,027.9,045.3,0.000,744.4,01.18,0.508
2014-05-10 00:38:00,2792E-2,5C000410,-0724,1056,9955,027.9,045.3,0.000,744.4,01.18,0.508
2014-05-10 00:39:00,2800E-2,5C000410,-0724,1056,9949,027.9,045.3,0.000,744.3,01.18,0.508
2014-05-10 00:40:00,2813E-2,5C000400,-0724,1055,9922,028.0,045.3,0.000,744.4,01.18,0.508
2014-05-10 00:41:00,2802E-2,5C000400,-0724,1055,9939,027.9,045.3,0.000,744.3,01.18,0.508
2014-05-10 00:42:00,2814E-2,5C000400,-0724,1055,10047,028.0,045.3,0.000,744.3,01.18,0.508
2014-05-10 00:43:00,2845E-2,5C000400,-0724,1055,10035,028.0,045.3,0.000,744.3,01.18,0.508
2014-05-10 00:44:00,2826E-2,5C000410,-0724,1055,9867,028.0,045.3,0.000,744.4,01.18,0.508
2014-05-10 00:45:00,2820E-2,5C000410,-0724,1055,9895,028.0,045.3,0.000,744.4,01.18,0.508
2014-05-10 00:46:00,2831E-2,5C000410,-0724,1054,9866,028.0,045.3,0.000,744.3,01.18,0.508
2014-05-10 00:47:00,2805E-2,5C000410,-0724,1055,9857,028.0,045.3,0.000,744.3,01.18,0.508
2014-05-10 00:48:00,2834E-2,5C000410,-0724,1057,9858,028.0,045.3,0.000,744.3,01.18,0.508
2014-05-10 00:49:00,2854E-2,5C000410,-0724,1055,9980,028.0,045.3,0.000,744.3,01.18,0.508
2014-05-10 00:50:00,2811E-2,5C000400,-0724,1055,9888,028.0,045.3,0.000,744.3,01.18,0.508
2014-05-10 00:51:00,2837E-2,5C000410,-0724,1056,9986,028.1,045.3,0.000,744.4,01.18,0.508
2014-05-10 00:52:00,2802E-2,5C000400,-0724,1056,9936,028.1,045.3,0.000,744.3,01.18,0.508
2014-05-10 00:53:00,2812E-2,5C000410,-0724,1056,10151,028.1,045.3,0.000,744.3,01.18,0.508
2014-05-10 00:54:00,2826E-2,5C000410,-0724,1056,9994,028.1,045.3,0.000,744.3,01.18,0.508
2014-05-10 00:55:00,2809E-2,5C000410,-0724,1057,9929,028.1,045.3,0.000,744.3,01.18,0.508
2014-05-10 00:56:00,2806E-2,5C000410,-0724,1055,10089,028.1,045.3,0.000,744.3,01.18,0.508
2014-05-10 00:57:00,2765E-2,5C000410,-0724,1057,10042,028.1,045.3,0.000,744.3,01.18,0.508
2014-05-10 00:58:00,2798E-2,5C000400,-0724,1056,9913,028.1,045.3,0.000,744.3,01.18,0.508
2014-05-10 00:59:00,2815E-2,5C000410,-0724,1057,9894,028.1,045.3,0.000,744.3,01.18,0.508
2014-05-10 01:00:00,2811E-2,5C000400,-0724,1058,9923,028.1,045.3,0.000,744.3,01.18,0.508
2014-05-10 01:01:00,2817E-2,5C000410,-0724,1057,9880,028.1,045.3,0.000,744.3,01.18,0.508
2014-05-10 01:02:00,2815E-2,5C000410,-0724,1057,9863,028.1,045.3,0.000,744.3,01.18,0.508
2014-05-10 01:03:00,2796E-2,5C000410,-0724,1057,9915,028.1,045.3,0.000,744.3,01.18,0.508
2014-05-10 01:04:00,2775E-2,5C000410,-0724,1056,9981,028.2,045.3,0.000,744.3,01.18,0.508
2014-05-10 01:05:00,2849E-2,5C000410,-0724,1057,9900,028.2,045.3,0.000,744.2,01.18,0.508
2014-05-10 01:06:00,2828E-2,5C000410,-0724,1057,9970,028.2,045.3,0.000,744.3,01.18,0.508
2014-05-10 01:07:00,2798E-2,5C000410,-0724,1057,9822,028.2,045.3,0.000,744.3,01.18,0.508
2014-05-10 01:08:00,2831E-2,5C000410,-0724,1056,9966,028.2,045.3,0.000,744.4,01.18,0.508
2014-05-10 01:09:00,2814E-2,5C000410,-0724,1058,9927,028.2,045.3,0.000,744.3,01.18,0.508
2014-05-10 01:10:00,2810E-2,5C000400,-0724,1058,9969,028.2,045.3,0.000,744.3,01.18,0.508
2014-05-10 01:11:00,2815E-2,5C000410,-0724,1057,9721,028.2,045.4,0.000,744.3,01.18,0.508
2014-05-10 01:12:00,2817E-2,5C000410,-0724,1058,9834,028.2,045.3,0.000,744.3,01.18,0.508
2014-05-10 01:13:00,2870E-2,5C000400,-0724,1056,9947,028.2,045.3,0.000,744.3,01.18,0.508
2014-05-10 01:14:00,2793E-2,5C000410,-0724,1058,9801,028.2,045.3,0.000,744.3,01.18,0.508
2014-05-10 01:15:00,2825E-2,5C000410,-0724,1058,9959,028.3,045.3,0.000,744.3,01.18,0.508
2014-05-10 01:16:00,2791E-2,5C000410,-0724,1057,9902,028.3,045.3,0.000,744.4,01.18,0.508
2014-05-10 01:17:00,2856E-2,5C000400,-0724,1059,9983,028.3,045.3,0.000,744.4,01.18,0.508
2014-05-10 01:18:00,2806E-2,5C000410,-0724,1057,10037,028.3,045.3,0.000,744.4,01.18,0.508
2014-05-10 01:19:00,2806E-2,5C000400,-0724,1057,9967,028.3,045.3,0.000,744.3,01.18,0.508
2014-05-10 01:20:00,2819E-2,5C000400,-0724,1059,10024,028.3,045.3,0.000,744.3,01.18,0.508
2014-05-10 01:21:00,2812E-2,5C000410,-0724,1057,9844,028.3,045.3,0.000,744.4,01.18,0.508
2014-05-10 01:22:00,2787E-2,5C000400,-0724,1058,10044,028.3,045.3,0.000,744.3,01.18,0.508
2014-05-10 01:23:00,2852E-2,5C000410,-0724,1058,9947,028.3,045.3,0.000,744.4,01.18,0.508
2014-05-10 01:24:00,2778E-2,5C000410,-0724,1058,9925,028.4,045.3,0.000,744.4,01.18,0.508
2014-05-10 01:25:00,2833E-2,5C000400,-0724,1057,10030,028.3,045.3,0.000,744.4,01.18,0.508
2014-05-10 01:26:00,2792E-2,5C000410,-0724,1059,9915,028.4,045.3,0.000,744.3,01.18,0.508
2014-05-10 01:27:00,2849E-2,5C000410,-0724,1058,9908,028.4,045.4,0.000,744.4,01.18,0.508
2014-05-10 01:28:00,2842E-2,5C000410,-0724,1058,10004,028.4,045.4,0.000,744.4,01.18,0.508
2014-05-10 01:29:00,2847E-2,5C000410,-0724,1059,9943,028.4,045.3,0.000,744.3,01.18,0.508
2014-05-10 01:30:00,2853E-2,5C000410,-0724,1059,9998,028.4,045.3,0.000,744.3,01.18,0.508
2014-05-10 01:31:00,2813E-2,5C000410,-0724,1060,9875,028.4,045.3,0.000,744.3,01.18,0.508
2014-05-10 01:32:00,2838E-2,5C000410,-0724,1060,9992,028.4,045.3,0.000,744.3,01.18,0.508
2014-05-10 01:33:00,2839E-2,5C000410,-0724,1059,9916,028.4,045.3,0.000,744.3,01.18,0.508
2014-05-10 01:34:00,2779E-2,5C000410,-0724,1059,9934,028.4,045.3,0.000,744.3,01.18,0.508
2014-05-10 01:35:00,2863E-2,5C000400,-0724,1059,9952,028.4,045.3,0.000,744.3,01.18,0.508
2014-05-10 01:36:00,2825E-2,5C000410,-0724,1059,9932,028.4,045.3,0.000,744.3,01.18,0.508
2014-05-10 01:37:00,2851E-2,5C000400,-0724,1059,10022,028.4,045.3,0.000,744.3,01.18,0.508
2014-05-10 01:38:00,2841E-2,5C000410,-0724,1059,9925,028.4,045.3,0.000,744.3,01.18,0.508
2014-05-10 01:39:00,2854E-2,5C000410,-0724,1059,9788,028.4,045.3,0.000,744.3,01.18,0.508
2014-05-10 01:40:00,2799E-2,5C000410,-0724,1058,9931,028.4,045.3,0.000,744.4,01.18,0.508
2014-05-10 01:41:00,2827E-2,5C000410,-0724,1058,9997,028.4,045.3,0.000,744.3,01.18,0.508
2014-05-10 01:42:00,2853E-2,5C000410,-0724,1058,9752,028.4,045.3,0.000,744.3,01.18,0.508
2014-05-10 01:43:00,2821E-2,5C000410,-0724,1058,9984,028.4,045.4,0.000,744.3,01.18,0.508
2014-05-10 01:44:00,2811E-2,5C000410,-0724,1058,9907,028.5,045.3,0.000,744.3,01.18,0.508
2014-05-10 01:45:00,2778E-2,5C000410,-0724,1064,9841,028.5,045.3,0.000,744.3,01.18,0.508
2014-05-10 01:46:00,2819E-2,5C000410,-0724,1064,10009,028.5,045.3,0.000,744.3,01.18,0.508
2014-05-10 01:47:00,2792E-2,5C000400,-0724,1064,9935,028.5,045.3,0.000,744.3,01.18,0.508
2014-05-10 01:48:00,2808E-2,5C000400,-0724,1063,9895,028.5,045.4,0.000,744.3,01.18,0.508
2014-05-10 01:49:00,2817E-2,5C000410,-0724,1063,9942,028.5,045.3,0.000,744.3,01.18,0.508
2014-05-10 01:50:00,2817E-2,5C000410,-0724,1064,9964,028.5,045.3,0.000,744.3,01.18,0.508
2014-05-10 01:51:00,2801E-2,5C000410,-0724,1063,9872,028.5,045.3,0.000,744.4,01.18,0.508
2014-05-10 01:52:00,2796E-2,5C000410,-0724,1064,10000,028.5,045.3,0.000,744.3,01.18,0.508
2014-05-10 01:53:00,2840E-2,5C000410,-0724,1064,9768,028.5,045.3,0.000,744.3,01.18,0.508
2014-05-10 01:54:00,2793E-2,5C000410,-0724,1064,9890,028.5,045.3,0.000,744.3,01.18,0.508
2014-05-10 01:55:00,2791E-2,5C000410,-0724,1066,9820,028.5,045.4,0.000,744.3,01.18,0.508
2014-05-10 01:56:00,2806E-2,5C000410,-0724,1066,9896,028.5,045.3,0.000,744.3,01.18,0.508
2014-05-10 01:57:00,2799E-2,5C000400,-0724,1065,9838,028.5,045.3,0.000,744.3,01.18,0.508
2014-05-10 01:58:00,2802E-2,5C000410,-0724,1065,9882,028.5,045.3,0.000,744.2,01.18,0.508
2014-05-10 01:59:00,2826E-2,5C000410,-0724,1064,9904,028.5,045.3,0.000,744.3,01.18,0.508
2014-05-10 02:00:00,2835E-2,5C000410,-0724,1064,9945,028.5,045.3,0.000,744.3,01.18,0.508
2014-05-10 02:01:00,2810E-2,5C000410,-0724,1064,9695,028.5,045.4,0.000,744.3,01.18,0.508
2014-05-10 02:02:00,2824E-2,5C000410,-0724,1065,9780,028.5,045.3,0.000,744.3,01.18,0.508
2014-05-10 02:03:00,2849E-2,5C000410,-0724,1065,9795,028.6,045.3,0.000,744.3,01.18,0.508
2014-05-10 02:04:00,2795E-2,5C000410,-0724,1064,9928,028.5,045.3,0.000,744.2,01.18,0.508
2014-05-10 02:05:00,2841E-2,5C000410,-0724,1064,9859,028.5,045.3,0.000,744.3,01.18,0.508
2014-05-10 02:06:00,2837E-2,5C000410,-0724,1064,9898,028.6,045.3,0.000,744.2,01.18,0.508
2014-05-10 02:07:00,2819E-2,5C000410,-0724,1063,9990,028.5,045.3,0.000,744.2,01.18,0.508
2014-05-10 02:08:00,2864E-2,5C000410,-0724,1064,9907,028.6,045.3,0.000,744.2,01.18,0.508
2014-05-10 02:09:00,2846E-2,5C000410,-0724,1065,9926,028.6,045.3,0.000,744.3,01.18,0.508
2014-05-10 02:10:00,2847E-2,5C000410,-0724,1064,9967,028.6,045.3,0.000,744.3,01.18,0.508
2014-05-10 02:11:00,2806E-2,5C000410,-0724,1064,9910,028.6,045.3,0.000,744.3,01.18,0.508
2014-05-10 02:12:00,2815E-2,5C000410,-0724,1065,9915,028.6,045.3,0.000,744.2,01.18,0.508
2014-05-10 02:13:00,2845E-2,5C000410,-0724,1065,9848,028.6,045.3,0.000,744.2,01.18,0.508
2014-05-10 02:14:00,2820E-2,5C000410,-0724,1066,9895,028.6,045.3,0.000,744.2,01.18,0.508
2014-05-10 02:15:00,2813E-2,5C000410,-0724,1065,9761,028.6,045.4,0.000,744.2,01.18,0.508
2014-05-10 02:16:00,2837E-2,5C000410,-0724,1064,9909,028.6,045.4,0.000,744.3,01.18,0.508
2014-05-10 02:17:00,2831E-2,5C000400,-0724,1064,9751,028.6,045.3,0.000,744.2,01.18,0.508
2014-05-10 02:18:00,2839E-2,5C000410,-0724,1064,9936,028.6,045.3,0.000,744.2,01.18,0.508
2014-05-10 02:19:00,2827E-2,5C000410,-0724,1065,9870,028.6,045.3,0.000,744.2,01.18,0.508
2014-05-10 02:20:00,2829E-2,5C000410,-0724,1065,9802,028.6,045.3,0.000,744.2,01.18,0.508
2014-05-10 02:21:00,2866E-2,5C000410,-0724,1065,9832,028.6,045.3,0.000,744.2,01.18,0.508
2014-05-10 02:22:00,2866E-2,5C000410,-0724,1065,9857,028.6,045.3,0.000,744.2,01.18,0.508
2014-05-10 02:23:00,2843E-2,5C000410,-0724,1065,9885,028.6,045.3,0.000,744.2,01.18,0.508
2014-05-10 02:24:00,2838E-2,5C000410,-0724,1066,9907,028.6,045.3,0.000,744.2,01.18,0.508
2014-05-10 02:25:00,2832E-2,5C000410,-0724,1066,10021,028.6,045.3,0.000,744.2,01.18,0.508
2014-05-10 02:26:00,2885E-2,5C000410,-0724,1065,9788,028.6,045.3,0.000,744.2,01.18,0.508
2014-05-10 02:27:00,2874E-2,5C000410,-0724,1067,9910,028.6,045.3,0.000,744.2,01.18,0.508
2014-05-10 02:28:00,2819E-2,5C000410,-0724,1066,9819,028.6,045.3,0.000,744.2,01.18,0.508
2014-05-10 02:29:00,2865E-2,5C000400,-0724,1068,9942,028.6,045.3,0.000,744.2,01.18,0.508
2014-05-10 02:30:00,2827E-2,5C000410,-0724,1068,9930,028.7,045.4,0.000,744.2,01.18,0.508
2014-05-10 02:31:00,2820E-2,5C000410,-0724,1067,9919,028.7,045.3,0.000,744.2,01.18,0.508
2014-05-10 02:32:00,2836E-2,5C000410,-0724,1067,9781,028.7,045.3,0.000,744.2,01.18,0.508
2014-05-10 02:33:00,2829E-2,5C000410,-0724,1068,9759,028.7,045.3,0.000,744.2,01.18,0.508
2014-05-10 02:34:00,2868E-2,5C000410,-0724,1067,9794,028.7,045.3,0.000,744.2,01.18,0.508
2014-05-10 02:35:00,2858E-2,5C000410,-0724,1067,9745,028.7,045.3,0.000,744.2,01.18,0.508
2014-05-10 02:36:00,2835E-2,5C000410,-0724,1067,9795,028.7,045.3,0.000,744.2,01.18,0.508
2014-05-10 02:37:00,2873E-2,5C000410,-0724,1069,9933,028.7,045.3,0.000,744.3,01.18,0.508
2014-05-10 02:38:00,2828E-2,5C000410,-0724,1067,9792,028.7,045.3,0.000,744.2,01.18,0.508
2014-05-10 02:39:00,2837E-2,5C000410,-0724,1067,9921,028.7,045.3,0.000,744.3,01.18,0.508
2014-05-10 02:40:00,2857E-2,5C000410,-0724,1069,9843,028.7,045.3,0.000,744.3,01.18,0.508
2014-05-10 02:41:00,2839E-2,5C000410,-0724,1068,9837,028.7,045.4,0.000,744.3,01.18,0.508
2014-05-10 02:42:00,2892E-2,5C000410,-0724,1068,9750,028.7,045.3,0.000,744.2,01.18,0.508
2014-05-10 02:43:00,2870E-2,5C000410,-0724,1067,9765,028.7,045.3,0.000,744.3,01.18,0.508
2014-05-10 02:44:00,2847E-2,5C000410,-0724,1069,9886,028.8,045.3,0.000,744.3,01.18,0.508
2014-05-10 02:45:00,2828E-2,5C000410,-0724,1068,9882,028.8,045.4,0.000,744.4,01.18,0.508
2014-05-10 02:46:00,2840E-2,5C000410,-0724,1068,9843,028.7,045.3,0.000,744.2,01.18,0.508
2014-05-10 02:47:00,2850E-2,5C000410,-0724,1069,9850,028.8,045.3,0.000,744.2,01.18,0.508
2014-05-10 02:48:00,2806E-2,5C000410,-0724,1069,9859,028.8,045.3,0.000,744.2,01.18,0.508
2014-05-10 02:49:00,2849E-2,5C000410,-0724,1069,9751,028.8,045.3,0.000,744.3,01.18,0.508
2014-05-10 02:50:00,2909E-2,5C000400,-0724,1070,9882,028.8,045.4,0.000,744.2,01.18,0.508
2014-05-10 02:51:00,2838E-2,5C000410,-0724,1071,9789,028.8,045.3,0.000,744.2,01.18,0.508
2014-05-10 02:52:00,2894E-2,5C000410,-0724,1072,9827,028.8,045.4,0.000,744.3,01.18,0.508
2014-05-10 02:53:00,2841E-2,5C000410,-0724,1070,9911,028.8,045.4,0.000,744.2,01.18,0.508
2014-05-10 02:54:00,2871E-2,5C000410,-0724,1069,9889,028.8,045.3,0.000,744.2,01.18,0.508
2014-05-10 02:55:00,2851E-2,5C000410,-0724,1069,9798,028.8,045.3,0.000,744.2,01.18,0.508
2014-05-10 02:56:00,2900E-2,5C000410,-0724,1072,9901,028.8,045.3,0.000,744.2,01.18,0.508
2014-05-10 02:57:00,2887E-2,5C000410,-0724,1070,9829,028.8,045.4,0.000,744.2,01.18,0.508
2014-05-10 02:58:00,2879E-2,5C000410,-0724,1069,9922,028.8,045.4,0.000,744.1,01.18,0.508
2014-05-10 02:59:00,2878E-2,5C000410,-0724,1070,9776,028.8,045.4,0.000,744.2,01.18,0.508
2014-05-10 03:00:00,2883E-2,5C000410,-0724,1070,9852,028.9,045.3,0.000,744.2,01.18,0.508
2014-05-10 03:01:00,2832E-2,5C000410,-0724,1071,9755,028.9,045.3,0.000,744.1,01.18,0.508
2014-05-10 03:02:00,2910E-2,5C000410,-0724,1070,9822,028.9,045.3,0.000,744.2,01.18,0.508
2014-05-10 03:03:00,2889E-2,5C000410,-0724,1072,9711,028.9,045.4,0.000,744.2,01.18,0.508
2014-05-10 03:04:00,2886E-2,5C000410,-0724,1070,9878,028.9,045.4,0.000,744.1,01.18,0.508
2014-05-10 03:05:00,2871E-2,5C000410,-0724,1068,9775,028.9,045.3,0.000,744.0,01.18,0.508
2014-05-10 03:06:00,2862E-2,5C000410,-0724,1069,9828,028.9,045.3,0.000,744.0,01.18,0.508
2014-05-10 03:07:00,2879E-2,5C000410,-0724,1069,9718,028.9,045.3,0.000,744.2,01.18,0.508
2014-05-10 03:08:00,2866E-2,5C000410,-0724,1068,9902,028.9,045.3,0.000,744.1,01.18,0.508
2014-05-10 03:09:00,2837E-2,5C000410,-0724,1071,9641,028.9,045.4,0.000,744.1,01.18,0.508
2014-05-10 03:10:00,2865E-2,5C000410,-0724,1071,9755,028.9,045.4,0.000,744.0,01.18,0.508
2014-05-10 03:11:00,2883E-2,5C000410,-0724,1071,9838,028.9,045.3,0.000,744.0,01.18,0.508
2014-05-10 03:12:00,2854E-2,5C000410,-0724,1071,9885,028.9,045.4,0.000,744.0,01.18,0.508
2014-05-10 03:13:00,2830E-2,5C000410,-0724,1071,9750,029.0,045.3,0.000,744.0,01.18,0.508
2014-05-10 03:14:00,2854E-2,5C000410,-0724,1071,9874,029.0,045.4,0.000,744.0,01.18,0.508
2014-05-10 03:15:00,2875E-2,5C000410,-0724,1071,9780,029.0,045.3,0.000,744.0,01.18,0.508
2014-05-10 03:16:00,2909E-2,5C000410,-0724,1071,9708,029.0,045.3,0.000,744.0,01.18,0.508
2014-05-10 03:17:00,2871E-2,5C000410,-0724,1072,9878,029.0,045.3,0.000,744.0,01.18,0.508
2014-05-10 03:18:00,2896E-2,5C000410,-0724,1070,9721,029.0,045.3,0.000,744.0,01.18,0.508
2014-05-10 03:19:00,2863E-2,5C000410,-0724,1070,9984,029.0,045.4,0.000,744.1,01.18,0.508
2014-05-10 03:20:00,2915E-2,5C000410,-0724,1072,9750,029.0,045.4,0.000,744.0,01.18,0.508
2014-05-10 03:21:00,2898E-2,5C000410,-0724,1073,9768,029.0,045.4,0.000,744.0,01.18,0.508
2014-05-10 03:22:00,2903E-2,5C000410,-0724,1073,9653,029.0,045.4,0.000,744.0,01.18,0.508
2014-05-10 03:23:00,2862E-2,5C000410,-0724,1072,9934,029.0,045.3,0.000,743.9,01.18,0.508
2014-05-10 03:24:00,2896E-2,5C000410,-0724,1072,9901,029.0,045.4,0.000,744.0,01.18,0.508
2014-05-10 03:25:00,2885E-2,5C000410,-0724,1073,9897,029.1,045.4,0.000,744.0,01.18,0.508
2014-05-10 03:26:00,2868E-2,5C000410,-0724,1072,9762,029.1,045.4,0.000,744.0,01.18,0.508
2014-05-10 03:27:00,2912E-2,5C000410,-0724,1072,9851,029.0,045.4,0.000,744.0,01.18,0.508
2014-05-10 03:28:00,2907E-2,5C000410,-0724,1072,9868,029.1,045.4,0.000,744.0,01.18,0.508
2014-05-10 03:29:00,2876E-2,5C000410,-0724,1072,9910,029.1,045.4,0.000,744.0,01.18,0.508
2014-05-10 03:30:00,2895E-2,5C000410,-0724,1072,9687,029.1,045.3,0.000,744.0,01.18,0.508
2014-05-10 03:31:00,2924E-2,5C000410,-0724,1072,9855,029.1,045.4,0.000,744.1,01.18,0.508
2014-05-10 03:32:00,2891E-2,5C000410,-0724,1071,9679,029.1,045.4,0.000,744.0,01.18,0.508
2014-05-10 03:33:00,2936E-2,5C000410,-0724,1072,9771,029.1,045.4,0.000,744.0,01.18,0.508
2014-05-10 03:34:00,2907E-2,5C000410,-0724,1073,9923,029.1,045.4,0.000,744.0,01.18,0.508
2014-05-10 03:35:00,2924E-2,5C000410,-0724,1072,9839,029.1,045.4,0.000,744.0,01.18,0.508
2014-05-10 03:36:00,2874E-2,5C000410,-0724,1072,9983,029.1,045.4,0.000,744.0,01.18,0.508
2014-05-10 03:37:00,2841E-2,5C000410,-0724,1071,9652,029.1,045.4,0.000,744.1,01.18,0.508
2014-05-10 03:38:00,2910E-2,5C000410,-0724,1073,9570,029.1,045.4,0.000,744.1,01.18,0.508
2014-05-10 03:39:00,2855E-2,5C000410,-0724,1072,9815,029.1,045.4,0.000,744.0,01.18,0.508
2014-05-10 03:40:00,2858E-2,5C000410,-0724,1072,9763,029.1,045.4,0.000,744.1,01.18,0.508
2014-05-10 03:41:00,2866E-2,5C000410,-0724,1072,9794,029.1,045.4,0.000,744.0,01.18,0.508
2014-05-10 03:42:00,2843E-2,5C000410,-0724,1072,9828,029.1,045.3,0.000,744.0,01.18,0.508
2014-05-10 03:43:00,2923E-2,5C000410,-0724,1072,9675,029.1,045.4,0.000,744.1,01.18,0.508
2014-05-10 03:44:00,2854E-2,5C000410,-0724,1072,9798,029.1,045.4,0.000,744.0,01.18,0.508
2014-05-10 03:45:00,2843E-2,5C000410,-0724,1070,9906,029.1,045.4,0.000,744.0,01.18,0.508
2014-05-10 03:46:00,2869E-2,5C000410,-0724,1074,9703,029.1,045.3,0.000,744.0,01.18,0.508
2014-05-10 03:47:00,2890E-2,5C000410,-0724,1071,9876,029.1,045.4,0.000,744.0,01.18,0.508
2014-05-10 03:48:00,2877E-2,5C000410,-0724,1073,9745,029.1,045.4,0.000,744.0,01.18,0.508
2014-05-10 03:49:00,2877E-2,5C000410,-0724,1073,9787,029.1,045.4,0.000,744.0,01.18,0.508
2014-05-10 03:50:00,2864E-2,5C000410,-0724,1073,9920,029.1,045.4,0.000,744.0,01.18,0.508
2014-05-10 03:51:00,2893E-2,5C000410,-0724,1071,9837,029.1,045.4,0.000,744.0,01.18,0.508
2014-05-10 03:52:00,2866E-2,5C000410,-0724,1072,9895,029.1,045.3,0.000,744.0,01.18,0.508
2014-05-10 03:53:00,2853E-2,5C000410,-0724,1071,9704,029.1,045.4,0.000,744.0,01.18,0.508
2014-05-10 03:54:00,2863E-2,5C000410,-0724,1073,9927,029.1,045.4,0.000,743.9,01.18,0.508
2014-05-10 03:55:00,2847E-2,5C000410,-0724,1071,9802,029.1,045.3,0.000,744.0,01.18,0.508
2014-05-10 03:56:00,2845E-2,5C000410,-0724,1073,9655,029.1,045.4,0.000,744.1,01.18,0.508
2014-05-10 03:57:00,2892E-2,5C000410,-0724,1073,9772,029.2,045.4,0.000,744.1,01.18,0.508
2014-05-10 03:58:00,2846E-2,5C000410,-0724,1073,9800,029.2,045.4,0.000,744.0,01.18,0.508
2014-05-10 03:59:00,2816E-2,5C000410,-0724,1073,9795,029.2,045.4,0.000,744.0,01.18,0.508
2014-05-10 04:00:00,2810E-2,5C000410,-0724,1073,9889,029.2,045.4,0.000,744.1,01.18,0.508
2014-05-10 04:01:00,2866E-2,5C000410,-0724,1073,9895,029.2,045.4,0.000,744.1,01.18,0.508
2014-05-10 04:02:00,2821E-2,5C000410,-0724,1072,9909,029.2,045.4,0.000,744.1,01.18,0.508
2014-05-10 04:03:00,2863E-2,5C000410,-0724,1071,9861,029.2,045.4,0.000,744.0,01.18,0.508
2014-05-10 04:04:00,2869E-2,5C000410,-0724,1072,9817,029.2,045.4,0.000,744.1,01.18,0.508
2014-05-10 04:05:00,2840E-2,5C000410,-0724,1070,9706,029.2,045.4,0.000,744.1,01.18,0.508
2014-05-10 04:06:00,2840E-2,5C000410,-0724,1072,9883,029.2,045.4,0.000,744.1,01.18,0.508
2014-05-10 04:07:00,2825E-2,5C000410,-0724,1071,9892,029.2,045.4,0.000,744.1,01.18,0.508
2014-05-10 04:08:00,2865E-2,5C000410,-0724,1072,9856,029.2,045.4,0.000,744.1,01.18,0.508
2014-05-10 04:09:00,2840E-2,5C000410,-0724,1070,9841,029.2,045.4,0.000,744.1,01.18,0.508
2014-05-10 04:10:00,2838E-2,5C000410,-0724,1071,9879,029.2,045.3,0.000,744.1,01.18,0.508
2014-05-10 04:11:00,2838E-2,5C000410,-0724,1070,9735,029.2,045.4,0.000,744.1,01.18,0.508
2014-05-10 04:12:00,2834E-2,5C000410,-0724,1071,9958,029.2,045.4,0.000,744.1,01.18,0.508
2014-05-10 04:13:00,2876E-2,5C000410,-0724,1070,9984,029.2,045.4,0.000,744.2,01.18,0.508
2014-05-10 04:14:00,2817E-2,5C000410,-0724,1070,9876,029.2,045.4,0.000,744.1,01.18,0.508
2014-05-10 04:15:00,2851E-2,5C000410,-0724,1070,9816,029.2,045.4,0.000,744.2,01.18,0.508
2014-05-10 04:16:00,2803E-2,5C000410,-0724,1071,9897,029.2,045.4,0.000,744.2,01.18,0.508
2014-05-10 04:17:00,2821E-2,5C000410,-0724,1069,9623,029.2,045.4,0.000,744.2,01.18,0.508
2014-05-10 04:18:00,2855E-2,5C000410,-0724,1070,9750,029.2,045.4,0.000,744.2,01.18,0.508
2014-05-10 04:19:00,2817E-2,5C000410,-0724,1071,9843,029.2,045.4,0.000,744.2,01.18,0.508
2014-05-10 04:20:00,2866E-2,5C000410,-0724,1071,9684,029.2,045.4,0.000,744.2,01.18,0.508
2014-05-10 04:21:00,2886E-2,5C000410,-0724,1072,9823,029.2,045.4,0.000,744.2,01.18,0.508
2014-05-10 04:22:00,2852E-2,5C000410,-0724,1071,9705,029.2,045.4,0.000,744.2,01.18,0.508
2014-05-10 04:23:00,2851E-2,5C000410,-0724,1072,9784,029.2,045.4,0.000,744.3,01.18,0.508